Preview of NWS' New Version of Forecast
This preview is not operational and should not be used for support decisions.

Regional Weather Roundup (RWR)

Issued by National Weather Service (NWS)

                            
000
ASUS44 KMEG 181100
RWRTN 
TENNESSEE HOURLY STATE WEATHER ROUNDUP
NATIONAL WEATHER SERVICE MEMPHIS TN
600 AM CDT THU APR 18 2019

TNZ002-004-019-021-049-052-054-088>092-181200-
WEST TENNESSEE
  
CITY           SKY/WX    TMP DP  RH WIND       PRES   REMARKS
MEMPHIS INTL   CLOUDY    65  61  87 S14G22    29.74R                  
NWS MEMPHIS      N/A     64 N/A N/A MISG        N/A                   
JACKSON        FAIR      63  58  83 S16       29.77R                  
$$

TNZ008-025-027-028-033-062-065-066-181200-
NORTH MIDDLE TENNESSEE
  
CITY           SKY/WX    TMP DP  RH WIND       PRES   REMARKS
NASHVILLE      MOCLDY    62  53  72 S9        29.83S                  
CLARKSVILLE    FAIR      62  51  67 S9        29.75F                  
SMYRNA         CLOUDY    62  56  80 SE6       29.85S                  
CROSSVILLE     FAIR      62  52  69 S7G16     29.92S                  
$$

TNZ061-075-076-078-094-096-097-181200-
SOUTH MIDDLE TENNESSEE
  
CITY           SKY/WX    TMP DP  RH WIND       PRES   REMARKS
$$

TNZ017-018-042-046-047-181200-
NORTHEAST TENNESSEE
  
CITY           SKY/WX    TMP DP  RH WIND       PRES   REMARKS
TRI CITIES     MOCLDY    52  47  83 CALM      29.95R                  
$$

TNZ012-013-036-069-073-074-181200-
CENTRAL EAST TENNESSEE
  
CITY           SKY/WX    TMP DP  RH WIND       PRES   REMARKS
KNOXVILLE      FAIR      57  50  77 CALM      29.91S                  
OAK RIDGE      MOCLDY    60  50  69 CALM      29.93R                  
$$

TNZ083-085-099-181200-
SOUTHEAST TENNESSEE
  
CITY           SKY/WX    TMP DP  RH WIND       PRES   REMARKS
CHATTANOOGA    FAIR      59  53  80 CALM      29.93R                  
$$

SKY/WX REPORTED AS FAIR MEANS FEW OR NO CLOUDS BELOW
12 THOUSAND FEET.